Rock Hill, SC

2:05 PM EST on February 27, 2017 (GMT -0500)
Rock Hill-York County-Bryant

Weather History for KUZA - January, 2013

Change the Weather History Date:

Wednesday, January 30, 2013

  Actual Average Record
Temperature  
Mean Temperature 64 °F -  
Max Temperature 75 °F 54 °F 77 °F (2002)
Min Temperature 50 °F 33 °F 2 °F (1966)
Degree Days  
Heating Degree Days 1    
Growing Degree Days 14 (Base 50)    
Moisture  
Dew Point 60 °F    
Average Humidity 82    
Maximum Humidity 97    
Minimum Humidity 55    
Precipitation  
Precipitation 0.56 in - - ()
Sea Level Pressure  
Sea Level Pressure 29.73 in    
Wind  
Wind Speed 14 mph (SSW)    
Max Wind Speed 23 mph    
Max Gust Speed 39 mph    
Visibility 8 miles    
Events Rain    
Averages and records for this station are not official NWS values.
T = Trace of Precipitation, MM = Missing Value Source: NWS Daily Summary

Daily Weather History Graph

Daily Weather History Graph

Search for Another Location

Airport or City:

Trip Planner

Search our weather history database for the weather conditions in past years. The results will help you decide how hot, cold, wet, or windy it might be!

Date:

Astronomy

Jan. 30, 2013 Rise Set
Actual Time 7:24 AM EST 5:51 PM EST
Civil Twilight 6:57 AM EST 6:17 PM EST
Nautical Twilight 6:27 AM EST 6:48 PM EST
Astronomical Twilight 5:57 AM EST 7:18 PM EST
Moon 9:36 PM EST (1/30) 9:01 AM EST (1/30)
Length of Visible Light 11h 20m
Length of Day
10h 27m
Waning Gibbous, 88% of the Moon is Illuminated
Jan 30
Waning Gibbous
Feb 3
Last Quarter
Feb 10
New
Feb 17
First Quarter
Feb 25
Full

Hourly Weather History & Observations

Time (EST) Temp. Dew Point Humidity Pressure Visibility Wind Dir Wind Speed Gust Speed Precip Events Conditions
12:54 AM 63.0 °F 59.0 °F 87% 30.03 in 10.0 mi SSW 11.5 mph - N/A   Mostly Cloudy
1:54 AM 63.0 °F 60.1 °F 90% 29.99 in 10.0 mi South 8.1 mph 19.6 mph N/A   Mostly Cloudy
2:46 AM 63.0 °F 60.1 °F 90% 30.01 in 10.0 mi South 10.4 mph - N/A   Mostly Cloudy
2:54 AM 63.0 °F 60.1 °F 90% 29.98 in 10.0 mi South 9.2 mph - N/A   Overcast
3:54 AM 63.0 °F 61.0 °F 93% 29.96 in 9.0 mi South 10.4 mph - N/A   Overcast
4:54 AM 64.0 °F 61.0 °F 90% 29.92 in 9.0 mi South 10.4 mph 18.4 mph N/A   Overcast
5:54 AM 64.9 °F 62.1 °F 90% 29.91 in 10.0 mi South 11.5 mph 20.7 mph N/A   Overcast
6:54 AM 66.0 °F 62.1 °F 87% 29.90 in 10.0 mi South 18.4 mph 27.6 mph N/A   Overcast
7:54 AM 66.0 °F 62.1 °F 87% 29.90 in 9.0 mi SSW 15.0 mph 20.7 mph N/A   Overcast
8:54 AM 66.0 °F 62.1 °F 87% 29.87 in 7.0 mi SSW 17.3 mph 27.6 mph 0.00 in Rain Light Rain
9:10 AM 66.9 °F 62.1 °F 84% 29.88 in 8.0 mi South 12.7 mph 25.3 mph 0.00 in   Overcast
9:39 AM 68.0 °F 63.0 °F 84% 29.88 in 9.0 mi South 13.8 mph 25.3 mph 0.00 in   Overcast
9:54 AM 68.0 °F 63.0 °F 84% 29.86 in 9.0 mi SSW 15.0 mph 25.3 mph 0.00 in   Overcast
10:54 AM 68.0 °F 63.0 °F 84% 29.82 in 9.0 mi SSW 16.1 mph 25.3 mph N/A   Overcast
11:54 AM 71.1 °F 62.1 °F 73% 29.79 in 10.0 mi SSW 16.1 mph 38.0 mph N/A   Overcast
12:54 PM 73.9 °F 61.0 °F 64% 29.74 in 10.0 mi SSW 23.0 mph 36.8 mph N/A   Unknown
1:54 PM 73.0 °F 59.0 °F 61% 29.69 in 10.0 mi SSW 20.7 mph 35.7 mph N/A   Overcast
2:54 PM 75.9 °F 59.0 °F 56% 29.64 in 10.0 mi SSW 17.3 mph 28.8 mph N/A   Mostly Cloudy
3:54 PM 75.0 °F 57.9 °F 55% 29.61 in 10.0 mi South 18.4 mph 28.8 mph N/A   Overcast
4:54 PM 73.0 °F 59.0 °F 61% 29.57 in 10.0 mi South 10.4 mph 21.9 mph 0.00 in   Overcast
5:54 PM 73.0 °F 59.0 °F 61% 29.51 in 10.0 mi South 12.7 mph 28.8 mph N/A   Overcast
6:54 PM 70.0 °F 60.1 °F 71% 29.49 in 10.0 mi South 18.4 mph 29.9 mph 0.00 in   Overcast
7:54 PM 68.0 °F 61.0 °F 78% 29.45 in 10.0 mi South 16.1 mph 33.4 mph 0.02 in   Overcast
8:08 PM 66.9 °F 62.1 °F 84% 29.55 in 1.2 mi West 20.7 mph 34.5 mph 0.21 in Rain Rain
8:16 PM 64.0 °F 62.1 °F 93% 29.53 in 1.0 mi WSW 15.0 mph 34.5 mph 0.25 in Rain Heavy Rain
8:21 PM 63.0 °F 62.1 °F 97% 29.54 in 3.0 mi WSW 12.7 mph 29.9 mph 0.27 in Rain Rain
8:54 PM 62.1 °F 60.1 °F 93% 29.52 in 3.0 mi SW 16.1 mph 23.0 mph 0.40 in Rain Heavy Rain
9:14 PM 61.0 °F 60.1 °F 97% 29.55 in 6.0 mi WSW 11.5 mph - 0.04 in Rain Light Rain
9:21 PM 60.1 °F 57.9 °F 93% 29.57 in 3.0 mi North - - 0.07 in Rain Rain
9:34 PM 57.9 °F 54.0 °F 87% 29.57 in 3.0 mi WSW 18.4 mph 39.1 mph 0.11 in Rain Rain
9:54 PM 55.9 °F 53.1 °F 90% 29.56 in 8.0 mi WSW 18.4 mph 28.8 mph 0.12 in Rain Light Rain
10:54 PM 53.1 °F 48.0 °F 83% 29.59 in 10.0 mi SW 19.6 mph 25.3 mph 0.01 in Rain Light Rain
11:54 PM 50.0 °F 46.0 °F 86% 29.59 in 10.0 mi SW 18.4 mph 27.6 mph 0.01 in   Overcast